User: anonymous   Login
Location: Karlovy Vary
(50.2170°N, 12.9000°E)
Time: 16:08:21
(UTC+02:00)
Language:

ISS - Orbit

View from above orbital plane
View from above orbital plane
View from above satellite
View from above satellite

Ground track
Ground track

The orbit data is extracted from the following two-line orbital elements,

1 25544U 98067A   15109.12678053  .00029508  00000-0  42253-3 0  9991
2 25544 051.6472 019.0805 0005533 235.7502 265.2758 15.55920071938842
Epoch (UTC): 19 April 2015 03:02:33
Eccentricity: 0.0005533
inclination: 51.6472°
perigee height: 396 km
apogee height: 403 km
right ascension of ascending node: 19.0805°
argument of perigee: 235.7502°
revolutions per day: 15.55920071
mean anomaly at epoch: 265.2758°
orbit number at epoch: 93884

The dashed part of the orbit path shows where the satellite is in the earth's shadow,  

DLR